Fulton, NY

10:21 PM EDT on October 22, 2019 (GMT -0400)
Oswego County

Weather History for KFZY - May, 2019

Change the Weather History Date:

Sunday, May 19, 2019

  Actual Average (WUND) Record (WUND)
Temperature  
Mean Temperature 68 °F -  
Max Temperature 84 °F - - (-1)
Min Temperature 54 °F - - (-1)
Cooling Degree Days 3    
Growing Degree Days 18 (Base 50)    
Moisture  
Dew Point 59 °F    
Average Humidity 73    
Maximum Humidity 90    
Minimum Humidity 39    
Precipitation  
Precipitation 0.58 in - - ()
Sea Level Pressure  
Sea Level Pressure 29.83 in    
Wind  
Wind Speed 5 mph (WSW)    
Max Wind Speed 10 mph    
Max Gust Speed 30 mph    
Visibility 10 miles    
Events Rain , Thunderstorm    
Averages and records for this station are not official NWS values.
T = Trace of Precipitation, MM = Missing Value Source: NWS Daily Summary

Daily Weather History Graph

Daily Weather History Graph

Search for Another Location

Airport or City:

Astronomy

May. 19, 2019 Rise Set
Actual Time 5:37 AM EDT 8:27 PM EDT
Civil Twilight 5:04 AM EDT 9:00 PM EDT
Nautical Twilight 4:22 AM EDT 9:42 PM EDT
Astronomical Twilight 3:33 AM EDT 10:32 PM EDT
Moon 9:24 PM EDT (5/19) 6:22 AM EDT (5/19)
Length of Visible Light 15h 56m
Length of Day
14h 49m
Full, 99% of the Moon is Illuminated
May 19
Full
May 26
Last Quarter
Jun 3
New
Jun 10
First Quarter
Jun 17
Full

Hourly Weather History & Observations

Time (EDT) Temp. Heat Index Dew Point Humidity Pressure Visibility Wind Dir Wind Speed Gust Speed Precip Events Conditions
12:54 AM 57.0 °F - 32.0 °F 39% 29.95 in 10.0 mi ESE 3.5 mph - N/A   Clear
1:54 AM 57.0 °F - 34.0 °F 42% 29.94 in 10.0 mi Variable 4.6 mph - N/A   Scattered Clouds
2:54 AM 57.0 °F - 37.0 °F 47% 29.91 in 10.0 mi SE 3.5 mph - N/A   Mostly Cloudy
3:54 AM 55.9 °F - 44.1 °F 64% 29.90 in 10.0 mi ESE 5.8 mph - 0.04 in Rain Rain
4:17 AM 54.0 °F - 46.9 °F 77% 29.93 in 10.0 mi NNW 10.4 mph 18.4 mph 0.01 in Thunderstorm Mostly Cloudy
4:45 AM 54.0 °F - 46.9 °F 77% 29.91 in 10.0 mi Variable 4.6 mph - 0.01 in   Mostly Cloudy
4:54 AM 55.0 °F - 46.9 °F 74% 29.90 in 10.0 mi SE 4.6 mph - 0.01 in   Mostly Cloudy
5:54 AM 55.9 °F - 46.9 °F 72% 29.90 in 10.0 mi Variable 5.8 mph - N/A   Partly Cloudy
6:54 AM 57.9 °F - 50.0 °F 75% 29.90 in 10.0 mi SE 4.6 mph - N/A   Partly Cloudy
7:54 AM 63.0 °F - 54.0 °F 72% 29.89 in 10.0 mi North - - N/A   Clear
8:54 AM 69.1 °F - 57.9 °F 68% 29.89 in 10.0 mi SSE 4.6 mph - N/A   Partly Cloudy
9:54 AM 75.9 °F - 61.0 °F 60% 29.88 in 10.0 mi WSW 8.1 mph - N/A   Clear
10:54 AM 79.0 °F - 62.1 °F 56% 29.87 in 10.0 mi SW 10.4 mph - N/A   Clear
11:54 AM 81.0 °F 82.2 °F 63.0 °F 54% 29.86 in 10.0 mi Variable 5.8 mph - N/A   Scattered Clouds
12:54 PM 82.9 °F 84.0 °F 63.0 °F 51% 29.84 in 10.0 mi SSW 9.2 mph - N/A   Clear
1:18 PM 78.1 °F - 63.0 °F 60% 29.84 in 10.0 mi WNW 5.8 mph - 0.02 in Rain , Thunderstorm Light Rain
1:42 PM 75.9 °F - 66.0 °F 71% 29.85 in 10.0 mi WNW 9.2 mph - 0.02 in Thunderstorm Thunderstorm
1:54 PM 73.9 °F - 66.0 °F 76% 29.83 in 10.0 mi WNW 4.6 mph - 0.06 in Rain , Thunderstorm Thunderstorms and Rain
2:02 PM 73.0 °F - 66.9 °F 81% 29.83 in 10.0 mi Calm Calm - 0.05 in Rain , Thunderstorm Heavy Rain
2:17 PM 75.0 °F - 66.9 °F 76% 29.82 in 10.0 mi North 5.8 mph - 0.05 in Rain , Thunderstorm Light Thunderstorms and Rain
2:32 PM 73.9 °F - 66.0 °F 76% 29.84 in 10.0 mi NW 4.6 mph - 0.05 in Thunderstorm Mostly Cloudy
2:40 PM 72.0 °F - 66.0 °F 81% 29.83 in 10.0 mi Variable 3.5 mph - 0.05 in   Mostly Cloudy
2:54 PM 72.0 °F - 64.9 °F 78% 29.81 in 10.0 mi NW 4.6 mph - 0.08 in Rain , Thunderstorm Light Rain
3:03 PM 73.0 °F - 64.9 °F 76% 29.82 in 10.0 mi South 6.9 mph - 0.00 in Thunderstorm Thunderstorm
3:24 PM 73.9 °F - 66.9 °F 79% 29.80 in 10.0 mi Calm Calm - 0.03 in Rain Light Rain
3:51 PM 73.4 °F - 66.2 °F 78% 29.78 in 10.0 mi Variable 3.5 mph - 0.03 in Thunderstorm Thunderstorm
3:54 PM 72.0 °F - 66.9 °F 84% 29.79 in 10.0 mi Calm Calm - 0.03 in Thunderstorm Thunderstorm
4:17 PM 70.0 °F - 66.0 °F 87% 29.81 in 10.0 mi NNW 5.8 mph 29.9 mph 0.17 in Rain , Thunderstorm Heavy Rain
4:25 PM 70.0 °F - 66.0 °F 87% 29.79 in 10.0 mi Calm Calm - 0.24 in Rain , Thunderstorm Heavy Thunderstorms and Rain
4:40 PM 70.0 °F - 66.9 °F 90% 29.79 in 10.0 mi Variable 5.8 mph - 0.24 in Rain Light Rain
4:54 PM 71.1 °F - 66.0 °F 84% 29.78 in 10.0 mi Calm Calm - 0.24 in Rain Light Rain
5:54 PM 73.0 °F - 66.9 °F 81% 29.75 in 10.0 mi Variable 3.5 mph - 0.02 in   Partly Cloudy
6:54 PM 71.1 °F - 64.9 °F 81% 29.73 in 10.0 mi Variable 4.6 mph - N/A   Mostly Cloudy
7:54 PM 70.0 °F - 64.9 °F 84% 29.74 in 10.0 mi Variable 3.5 mph - N/A Thunderstorm Mostly Cloudy
8:08 PM 70.0 °F - 64.9 °F 84% 29.73 in 10.0 mi Variable 5.8 mph - N/A   Partly Cloudy
8:54 PM 69.1 °F - 64.0 °F 84% 29.70 in 10.0 mi Variable 3.5 mph - N/A   Partly Cloudy
9:54 PM 70.0 °F - 64.0 °F 81% 29.74 in 10.0 mi West 4.6 mph - 0.10 in Rain , Thunderstorm Light Rain
10:11 PM 70.0 °F - 64.0 °F 81% 29.76 in 10.0 mi WSW 4.6 mph - 0.00 in   Scattered Clouds
10:54 PM 66.9 °F - 61.0 °F 81% 29.78 in 10.0 mi West 9.2 mph - 0.00 in   Partly Cloudy
11:54 PM 64.0 °F - 57.9 °F 80% 29.78 in 10.0 mi West 6.9 mph - N/A   Scattered Clouds